User: anonymous   Login
Location: Unspecified
(0.0000°N, 0.0000°E)
Time: 19:22:28
(UTC+00:00)
Language:

BEESAT - Orbit

View from above orbital plane
View from above orbital plane
View from above satellite
View from above satellite

Ground track
Ground track

The orbit data is extracted from the following two-line orbital elements,

1 35933U 09051C   18351.01982774  .00000109  00000-0  35707-4 0  9990
2 35933  98.5694 148.5054 0006304  32.1179 328.0401 14.56322763490155
Epoch (UTC): 17 December 2018 00:28:33
Eccentricity: 0.0006304
inclination: 98.5694°
perigee height: 700 km
apogee height: 709 km
right ascension of ascending node: 148.5054°
argument of perigee: 32.1179°
revolutions per day: 14.56322763
mean anomaly at epoch: 328.0401°
orbit number at epoch: 49015

The dashed part of the orbit path shows where the satellite is in the earth's shadow,  

DLR